ATLAS AGENA B DEB, 630

Orbit data source: Space-Track

ATLAS AGENA B DEB, 630 is space debris in LEO originally from a launch on Fri, 19 Jul 1963 UTC launched from the Air Force Western Test Range (AFWTR). Debris objects in space refer to the collection of defunct objects orbiting the Earth. Examples of debris include non-operational satellites, rocket bodies, and fragments generated from explosions, collisions, or faulty payload assembly.

Loading next visibility...
Identifier
630, 1963-030C
Orbit
LEO
Country
Flag of USUS
Related business
Manufacturer
Unknown
Mission
Spacecraft
Bus & Motor
Unknown
Mass
~10 kg wet, ~10 kg dry
Launch date (UTC)
1963-07-19 (62 years ago)
Launch vehicle
Unknown
Launch site
Air Force Western Test Range (AFWTR)
Object type
Payload
Rocket body
Debris
Shape & HBR
Unknown
Radar Cross Section
Medium (>0.1 m² and <1 m²)

Expand to show TLE details & history
Last TLE update: 2 days ago

TLE from 2 days ago
0 ATLAS AGENA B DEB
1 00630U 63030C   25300.73985124  .00000032  00000-0  14603-1 0  9990
2 00630  88.4479 215.7270 0052976 116.8508 243.7773  8.59861373954857
Epoch: 2025-10-27T17:45Z
TLE epoch observation values (Epoch: 2025-10-27T17:45:23.147Z)
Latitude
0.00006°
Longitude
-86.95681°
Altitude
3,712.118 km
Speed
6.278 km/s
True Right ascension
14h 22m 54s
True Declination
0° 00' 00"
Sunlit
Object was in daylight at epoch
Visualization orbit readout
Latitude
Unknown
Longitude
Unknown
Altitude
Unknown
Speed
Unknown
Apparent Right ascension
Unknown
Apparent Declination
Unknown
Sunlit
N/A
Visualization observer readout
Local Sidereal Time
09:45:53
Azimuth
Unknown
Elevation
Unknown
Doppler factor
Unknown
Orbital elements
Apogee altitude
3,737.275 km
Perigee altitude
3,630.665 km
Semi-major axis
10,062.107 km
Eccentricity
0.0053
Inclination
88.4479°
RAAN
215.727°
Arg. of periapsis
116.8508°
True anomaly
243.23431°
Mean anomaly
243.7773°
Eccentric anomaly
243.50565°
Mean motion
2.15035 °/min
Orbital period
167.41 mins
BSTAR
0.014603
Loading maneuver chart data...
Computing Atmospheric mass density...
Loading historical data...
Loading historical data...
Loading historical data...
Loading historical data...
Loading historical data...
Loading historical data...
Loading historical data...

Documentation

Showing up to 5 results
|